sat.trackr.live / text

‹ back to catalog

KINEIS-4E

NORAD 63300 · 2025-056A

PAYLOAD ACTIVE UNKNOWN

§ Identity

Operator
Country
FR
Launch date
2025-03-18
Launch site
RLLB
Launch vehicle
Mass (kg)
RCS (m²)

External: N2YO · Heavens-Above · Gunter

§ Orbital elements

Epoch: 2026-05-25T03:24:28.497600Z

Period
97.80 min
Inclination
97.9012°
Eccentricity
0.0001156
Mean motion
14.72405799 rev/d
Perigee alt
652.6 km
Apogee alt
654.2 km
Semi-major
7,031.5 km
B*
2.0809e-4
RAAN
269.6779°
Arg perigee
173.8641°
Mean anomaly
186.2581°
Rev number
6,373

§ Raw data

KINEIS-4E1 63300U 25056A   26145.14199650  .00001270  00000+0  20809-3 0  99942 63300  97.9012 269.6779 0001156 173.8641 186.2581 14.72405799 63739

JSON: /api/v1/satellites/63300 · /tle

For live sub-satellite position, see the globe view (requires WebGL).

§ Visibility from observer

Set your observer location to see the next 7 days of passes ≥ 10°. The values pass through the URL so the page stays shareable.

No JS? Fill the form by hand. The geolocation button needs JavaScript.

§ Radio — SatNOGS DB

ModeDescriptionDownlinkUplink
BPSK PMT-A3 Mode U 400.651 MHz
FM S-band telemetry 2.261 GHz

2 transmitters · refreshed weekly from db.satnogs.org